UAL1117 KIND-KORD

Flight info

Callsign UAL1117
Flight time 0h 48m
Altitude 23000
Route MEARZ7 MEARZ BRATN BONNT VEECK5
Aircraft B738/M-SDE2E3FGHIRWXY/LB1

Departure

Time 2026-05-06 04:01
Airport Indianapolis International Airport (KIND)

Arrival

Time 2026-05-06 04:49
Airport Chicago O'Hare International Airport (KORD)
Time Latitude Longitude Altitude Speed Heading
2026-05-06 03:40 39.71849 -86.29590 776 ft 0 kts 244°
2026-05-06 03:50 39.71849 -86.29588 776 ft 1 kts 244°
2026-05-06 03:50 39.71856 -86.29572 776 ft 2 kts 244°
2026-05-06 03:50 39.71862 -86.29557 776 ft 2 kts 244°
2026-05-06 03:50 39.71868 -86.29541 776 ft 2 kts 244°
2026-05-06 03:51 39.71873 -86.29524 776 ft 2 kts 260°
2026-05-06 03:51 39.71874 -86.29510 776 ft 0 kts 269°
2026-05-06 03:51 39.71874 -86.29503 777 ft 0 kts 271°
2026-05-06 03:54 39.71874 -86.29504 776 ft 0 kts 274°
2026-05-06 03:54 39.71892 -86.29549 776 ft 11 kts 314°
2026-05-06 03:54 39.71953 -86.29601 776 ft 10 kts 325°
2026-05-06 03:55 39.72008 -86.29661 776 ft 10 kts 328°
2026-05-06 03:55 39.72071 -86.29668 776 ft 9 kts 24°
2026-05-06 03:55 39.72123 -86.29621 777 ft 7 kts 44°
2026-05-06 03:55 39.72134 -86.29566 778 ft 6 kts 102°
2026-05-06 03:56 39.72118 -86.29525 779 ft 4 kts 126°
2026-05-06 03:56 39.72100 -86.29497 779 ft 3 kts 132°
2026-05-06 03:56 39.72073 -86.29460 779 ft 13 kts 133°
2026-05-06 03:56 39.71963 -86.29310 780 ft 26 kts 136°
2026-05-06 03:57 39.71832 -86.29142 782 ft 31 kts 133°
2026-05-06 03:57 39.71677 -86.28954 783 ft 25 kts 169°
2026-05-06 03:57 39.71559 -86.29076 784 ft 23 kts 231°
2026-05-06 03:57 39.71454 -86.29243 782 ft 25 kts 230°
2026-05-06 03:58 39.71335 -86.29392 781 ft 24 kts 194°
2026-05-06 03:58 39.71182 -86.29391 785 ft 21 kts 181°
2026-05-06 03:58 39.71050 -86.29436 786 ft 20 kts 216°
2026-05-06 03:58 39.70943 -86.29572 785 ft 29 kts 225°
2026-05-06 03:59 39.70771 -86.29791 784 ft 39 kts 225°
2026-05-06 03:59 39.70584 -86.30031 784 ft 38 kts 225°
2026-05-06 03:59 39.70401 -86.30265 785 ft 37 kts 225°
2026-05-06 03:59 39.70220 -86.30492 784 ft 36 kts 225°
2026-05-06 04:00 39.70083 -86.30499 787 ft 21 kts 132°
2026-05-06 04:00 39.70100 -86.30345 789 ft 26 kts 47°
2026-05-06 04:00 39.70301 -86.30090 791 ft 76 kts 44°
2026-05-06 04:00 39.70820 -86.29429 791 ft 145 kts 45°
2026-05-06 04:01 39.71555 -86.28491 1188 ft 170 kts 44°
2026-05-06 04:01 39.72331 -86.27484 1925 ft 178 kts 43°
2026-05-06 04:01 39.73254 -86.26558 2579 ft 183 kts 22°
2026-05-06 04:01 39.74554 -86.26443 3073 ft 204 kts 344°
2026-05-06 04:02 39.75825 -86.27067 3803 ft 212 kts 342°
2026-05-06 04:02 39.77197 -86.27548 4427 ft 224 kts 351°
2026-05-06 04:02 39.78689 -86.27801 4986 ft 240 kts 353°
2026-05-06 04:02 39.80385 -86.28017 5613 ft 254 kts 353°
2026-05-06 04:03 39.82162 -86.28268 6298 ft 266 kts 352°
2026-05-06 04:03 39.83955 -86.28544 7091 ft 273 kts 350°
2026-05-06 04:03 39.85772 -86.28832 7822 ft 280 kts 349°
2026-05-06 04:03 39.87671 -86.29137 8541 ft 289 kts 349°
2026-05-06 04:04 39.89640 -86.29452 9261 ft 297 kts 348°
2026-05-06 04:04 39.91716 -86.29785 10008 ft 304 kts 347°
2026-05-06 04:04 39.93840 -86.30126 10620 ft 315 kts 347°
2026-05-06 04:04 39.96058 -86.30435 11148 ft 331 kts 352°
2026-05-06 04:05 39.98418 -86.30251 11595 ft 355 kts
2026-05-06 04:05 40.00803 -86.29015 11997 ft 379 kts 29°
2026-05-06 04:05 40.02889 -86.26842 12443 ft 396 kts 41°
2026-05-06 04:05 40.04939 -86.24277 12825 ft 413 kts 43°
2026-05-06 04:06 40.06982 -86.21635 13320 ft 425 kts 43°
2026-05-06 04:06 40.09125 -86.18855 13927 ft 432 kts 43°
2026-05-06 04:06 40.11289 -86.16061 14614 ft 437 kts 43°
2026-05-06 04:06 40.13539 -86.13203 15416 ft 440 kts 42°
2026-05-06 04:07 40.15813 -86.10350 16153 ft 443 kts 42°
2026-05-06 04:07 40.18047 -86.07552 16774 ft 447 kts 41°
2026-05-06 04:07 40.20286 -86.04757 17386 ft 452 kts 42°
2026-05-06 04:07 40.22587 -86.01884 17996 ft 457 kts 41°
2026-05-06 04:08 40.24890 -85.99007 18625 ft 460 kts 41°
2026-05-06 04:08 40.27189 -85.96122 19240 ft 464 kts 41°
2026-05-06 04:08 40.29476 -85.93246 19894 ft 466 kts 41°
2026-05-06 04:08 40.31664 -85.90488 20427 ft 470 kts 41°
2026-05-06 04:09 40.33849 -85.87726 20887 ft 475 kts 41°
2026-05-06 04:09 40.36032 -85.84958 21376 ft 479 kts 41°
2026-05-06 04:09 40.38290 -85.82090 21971 ft 481 kts 41°
2026-05-06 04:09 40.40708 -85.79030 22528 ft 483 kts 40°
2026-05-06 04:10 40.43224 -85.76073 22880 ft 486 kts 36°
2026-05-06 04:10 40.46017 -85.73578 22902 ft 482 kts 22°
2026-05-06 04:10 40.49045 -85.72012 22900 ft 467 kts
2026-05-06 04:10 40.52257 -85.71259 22908 ft 462 kts 358°
2026-05-06 04:11 40.55426 -85.71133 22904 ft 454 kts 352°
2026-05-06 04:11 40.58416 -85.71345 22898 ft 449 kts 346°
2026-05-06 04:11 40.61452 -85.71983 22894 ft 442 kts 340°
2026-05-06 04:11 40.64413 -85.72938 22891 ft 438 kts 337°
2026-05-06 04:12 40.67345 -85.74052 22893 ft 438 kts 335°
2026-05-06 04:12 40.70209 -85.75206 22890 ft 438 kts 335°
2026-05-06 04:12 40.73034 -85.76354 22887 ft 437 kts 335°
2026-05-06 04:12 40.75916 -85.77508 22893 ft 436 kts 335°
2026-05-06 04:13 40.78806 -85.78729 22890 ft 432 kts 331°
2026-05-06 04:13 40.81496 -85.80409 22893 ft 427 kts 322°
2026-05-06 04:13 40.83968 -85.82569 22886 ft 418 kts 315°
2026-05-06 04:13 40.86154 -85.84965 22889 ft 409 kts 309°
2026-05-06 04:14 40.88031 -85.87708 22893 ft 404 kts 300°
2026-05-06 04:14 40.89551 -85.90816 22890 ft 397 kts 292°
2026-05-06 04:14 40.90766 -85.93990 22892 ft 392 kts 289°
2026-05-06 04:14 40.91868 -85.97239 22887 ft 391 kts 288°
2026-05-06 04:15 40.92938 -86.00549 22892 ft 391 kts 287°
2026-05-06 04:15 40.93989 -86.03844 22894 ft 390 kts 288°
2026-05-06 04:15 40.95044 -86.07163 22891 ft 390 kts 287°
2026-05-06 04:15 40.96088 -86.10452 22896 ft 389 kts 287°
2026-05-06 04:16 40.97140 -86.13751 22888 ft 389 kts 287°
2026-05-06 04:16 40.98197 -86.17062 22892 ft 389 kts 287°
2026-05-06 04:16 40.99242 -86.20325 22894 ft 391 kts 288°
2026-05-06 04:16 41.00315 -86.23663 22890 ft 392 kts 288°
2026-05-06 04:17 41.01382 -86.26972 22903 ft 391 kts 288°
2026-05-06 04:17 41.02442 -86.30271 22902 ft 393 kts 288°
2026-05-06 04:17 41.03498 -86.33559 22888 ft 390 kts 287°
2026-05-06 04:17 41.04565 -86.36887 22894 ft 391 kts 288°
2026-05-06 04:18 41.05631 -86.40206 22894 ft 392 kts 287°
2026-05-06 04:18 41.06691 -86.43512 22895 ft 393 kts 287°
2026-05-06 04:18 41.07753 -86.46832 22895 ft 393 kts 287°
2026-05-06 04:18 41.08825 -86.50182 22892 ft 393 kts 287°
2026-05-06 04:19 41.09875 -86.53468 22897 ft 392 kts 288°
2026-05-06 04:19 41.10940 -86.56787 22889 ft 392 kts 287°
2026-05-06 04:19 41.12006 -86.60132 22896 ft 393 kts 287°
2026-05-06 04:19 41.13121 -86.63397 22896 ft 396 kts 290°
2026-05-06 04:20 41.14401 -86.66672 22893 ft 396 kts 292°
2026-05-06 04:20 41.15736 -86.69854 22893 ft 396 kts 292°
2026-05-06 04:20 41.17086 -86.73010 22900 ft 400 kts 293°
2026-05-06 04:20 41.18446 -86.76176 22897 ft 398 kts 292°
2026-05-06 04:21 41.19791 -86.79321 22898 ft 398 kts 292°
2026-05-06 04:21 41.21094 -86.82380 22892 ft 396 kts 292°
2026-05-06 04:21 41.22377 -86.85416 22895 ft 400 kts 292°
2026-05-06 04:21 41.23642 -86.88427 22895 ft 398 kts 292°
2026-05-06 04:22 41.24929 -86.91499 22890 ft 398 kts 291°
2026-05-06 04:22 41.26232 -86.94627 22892 ft 397 kts 291°
2026-05-06 04:22 41.27536 -86.97762 22883 ft 394 kts 291°
2026-05-06 04:23 41.30120 -87.03986 22885 ft 396 kts 291°
2026-05-06 04:23 41.31321 -87.06889 22891 ft 396 kts 291°
2026-05-06 04:23 41.32532 -87.09813 22887 ft 397 kts 291°
2026-05-06 04:23 41.33771 -87.12804 22884 ft 396 kts 292°
2026-05-06 04:24 41.35090 -87.15818 22888 ft 396 kts 294°
2026-05-06 04:24 41.36605 -87.18780 22889 ft 402 kts 300°
2026-05-06 04:24 41.38322 -87.21452 22892 ft 408 kts 305°
2026-05-06 04:24 41.40199 -87.23954 22892 ft 407 kts 308°
2026-05-06 04:25 41.42263 -87.26491 22893 ft 412 kts 309°
2026-05-06 04:25 41.44409 -87.29036 22894 ft 412 kts 310°
2026-05-06 04:25 41.46451 -87.31422 22897 ft 410 kts 310°
2026-05-06 04:25 41.48365 -87.33660 22896 ft 412 kts 310°
2026-05-06 04:26 41.50337 -87.35880 22900 ft 414 kts 313°
2026-05-06 04:26 41.52422 -87.37967 22901 ft 417 kts 316°
2026-05-06 04:26 41.54555 -87.39938 22904 ft 418 kts 317°
2026-05-06 04:26 41.56687 -87.41835 22907 ft 418 kts 318°
2026-05-06 04:27 41.58911 -87.43782 22903 ft 418 kts 318°
2026-05-06 04:27 41.61075 -87.45670 22904 ft 414 kts 318°
2026-05-06 04:27 41.63221 -87.47548 22898 ft 413 kts 318°
2026-05-06 04:27 41.65424 -87.49532 22900 ft 411 kts 316°
2026-05-06 04:28 41.67603 -87.51734 22895 ft 405 kts 313°
2026-05-06 04:28 41.69602 -87.53916 22899 ft 387 kts 311°
2026-05-06 04:28 41.71414 -87.55966 22893 ft 370 kts 310°
2026-05-06 04:28 41.73152 -87.57968 22884 ft 355 kts 310°
2026-05-06 04:29 41.74828 -87.59912 22864 ft 360 kts 310°
2026-05-06 04:29 41.76551 -87.61914 22591 ft 367 kts 310°
2026-05-06 04:29 41.78241 -87.63851 22177 ft 364 kts 311°
2026-05-06 04:29 41.79966 -87.65807 21755 ft 360 kts 310°
2026-05-06 04:30 41.81615 -87.67785 21303 ft 354 kts 307°
2026-05-06 04:30 41.83110 -87.69888 20901 ft 346 kts 303°
2026-05-06 04:30 41.84454 -87.72128 20450 ft 341 kts 300°
2026-05-06 04:30 41.85915 -87.74231 20038 ft 345 kts 310°
2026-05-06 04:31 41.87620 -87.76047 19644 ft 346 kts 315°
2026-05-06 04:31 41.89420 -87.77746 19289 ft 342 kts 317°
2026-05-06 04:31 41.91187 -87.79340 18986 ft 336 kts 318°
2026-05-06 04:31 41.92899 -87.80861 18735 ft 329 kts 317°
2026-05-06 04:32 41.94666 -87.82431 18516 ft 336 kts 318°
2026-05-06 04:32 41.96430 -87.84008 18326 ft 338 kts 318°
2026-05-06 04:32 41.98209 -87.85595 18156 ft 328 kts 318°
2026-05-06 04:32 41.99948 -87.87148 17960 ft 327 kts 317°
2026-05-06 04:33 42.01765 -87.88789 17746 ft 333 kts 318°
2026-05-06 04:33 42.03663 -87.90337 17510 ft 333 kts 328°
2026-05-06 04:33 42.05850 -87.91071 17366 ft 346 kts 349°
2026-05-06 04:33 42.08180 -87.90733 17370 ft 374 kts
2026-05-06 04:34 42.10365 -87.89439 17343 ft 390 kts 26°
2026-05-06 04:34 42.12252 -87.87294 17144 ft 393 kts 44°
2026-05-06 04:34 42.13632 -87.84536 16606 ft 401 kts 63°
2026-05-06 04:34 42.14391 -87.81316 16243 ft 397 kts 79°
2026-05-06 04:35 42.14733 -87.78107 15943 ft 383 kts 85°
2026-05-06 04:35 42.14886 -87.74921 15702 ft 366 kts 89°
2026-05-06 04:35 42.14946 -87.71766 15295 ft 357 kts 90°
2026-05-06 04:35 42.14973 -87.68606 14761 ft 351 kts 91°
2026-05-06 04:36 42.14942 -87.65550 14219 ft 348 kts 93°
2026-05-06 04:36 42.14875 -87.62474 13648 ft 345 kts 93°
2026-05-06 04:36 42.14800 -87.59548 13190 ft 338 kts 94°
2026-05-06 04:36 42.14723 -87.56660 12681 ft 335 kts 93°
2026-05-06 04:37 42.14639 -87.53799 12139 ft 331 kts 93°
2026-05-06 04:37 42.14553 -87.50982 11667 ft 325 kts 93°
2026-05-06 04:37 42.14469 -87.48200 11153 ft 322 kts 93°
2026-05-06 04:37 42.14384 -87.45430 10633 ft 318 kts 93°
2026-05-06 04:38 42.14294 -87.42661 10093 ft 314 kts 93°
2026-05-06 04:38 42.14200 -87.39893 9578 ft 310 kts 93°
2026-05-06 04:38 42.14097 -87.37043 9042 ft 306 kts 92°
2026-05-06 04:38 42.13977 -87.34257 8531 ft 301 kts 95°
2026-05-06 04:39 42.13525 -87.31760 8241 ft 290 kts 120°
2026-05-06 04:39 42.12373 -87.29951 8017 ft 280 kts 149°
2026-05-06 04:39 42.10815 -87.28961 7795 ft 276 kts 168°
2026-05-06 04:39 42.09103 -87.28623 7559 ft 271 kts 183°
2026-05-06 04:40 42.07412 -87.28854 7326 ft 269 kts 197°
2026-05-06 04:40 42.05799 -87.29538 7094 ft 267 kts 207°
2026-05-06 04:40 42.04390 -87.30720 6905 ft 263 kts 227°
2026-05-06 04:40 42.03396 -87.32449 6651 ft 258 kts 246°
2026-05-06 04:41 42.02793 -87.34564 6401 ft 254 kts 258°
2026-05-06 04:41 42.02459 -87.36636 6171 ft 254 kts 263°
2026-05-06 04:41 42.02195 -87.38760 5931 ft 254 kts 264°
2026-05-06 04:41 42.01945 -87.40879 5701 ft 254 kts 264°
2026-05-06 04:42 42.01688 -87.42998 5471 ft 254 kts 264°
2026-05-06 04:42 42.01424 -87.45109 5226 ft 254 kts 263°
2026-05-06 04:42 42.01150 -87.47249 4977 ft 254 kts 263°
2026-05-06 04:42 42.00876 -87.49371 4753 ft 255 kts 264°
2026-05-06 04:43 42.00601 -87.51502 4533 ft 256 kts 263°
2026-05-06 04:43 42.00326 -87.53624 4302 ft 255 kts 264°
2026-05-06 04:43 42.00048 -87.55765 4058 ft 255 kts 262°
2026-05-06 04:43 41.99490 -87.57785 3997 ft 252 kts 246°
2026-05-06 04:44 41.98858 -87.59706 3989 ft 245 kts 257°
2026-05-06 04:44 41.98624 -87.61662 3993 ft 233 kts 272°
2026-05-06 04:44 41.98674 -87.63592 4001 ft 222 kts 278°
2026-05-06 04:44 41.98745 -87.65430 4009 ft 208 kts 275°
2026-05-06 04:45 41.98760 -87.67190 3896 ft 199 kts 274°
2026-05-06 04:45 41.98756 -87.68931 3657 ft 196 kts 275°
2026-05-06 04:45 41.98761 -87.70637 3399 ft 195 kts 275°
2026-05-06 04:45 41.98772 -87.72369 3134 ft 193 kts 275°
2026-05-06 04:46 41.98777 -87.74067 2954 ft 181 kts 275°
2026-05-06 04:46 41.98782 -87.75694 2629 ft 177 kts 276°
2026-05-06 04:46 41.98788 -87.77264 2412 ft 172 kts 276°
2026-05-06 04:46 41.98795 -87.78837 2185 ft 172 kts 275°
2026-05-06 04:47 41.98797 -87.80398 1953 ft 169 kts 276°
2026-05-06 04:47 41.98801 -87.81845 1716 ft 156 kts 276°
2026-05-06 04:47 41.98806 -87.83148 1548 ft 152 kts 276°
2026-05-06 04:47 41.98811 -87.84472 1356 ft 151 kts 275°
2026-05-06 04:48 41.98818 -87.85776 1160 ft 148 kts 275°
2026-05-06 04:48 41.98821 -87.87051 1000 ft 149 kts 274°
2026-05-06 04:48 41.98828 -87.88326 798 ft 146 kts 272°
2026-05-06 04:48 41.98828 -87.89590 686 ft 145 kts 272°
2026-05-06 04:49 41.98834 -87.90826 654 ft 130 kts 272°
2026-05-06 04:49 41.98830 -87.91708 665 ft 55 kts 264°
2026-05-06 04:49 41.98753 -87.91936 668 ft 21 kts 241°
2026-05-06 04:49 41.98686 -87.91915 668 ft 12 kts 110°
2026-05-06 04:50 41.98679 -87.91808 667 ft 13 kts 87°
2026-05-06 04:50 41.98680 -87.91618 663 ft 24 kts 89°
2026-05-06 04:50 41.98680 -87.91385 659 ft 26 kts 90°
2026-05-06 04:50 41.98680 -87.91141 657 ft 26 kts 90°
2026-05-06 04:51 41.98679 -87.90900 657 ft 26 kts 91°
2026-05-06 04:51 41.98682 -87.90655 654 ft 26 kts 90°
2026-05-06 04:51 41.98681 -87.90409 654 ft 26 kts 90°
2026-05-06 04:51 41.98679 -87.90157 654 ft 26 kts 89°
2026-05-06 04:52 41.98566 -87.90044 656 ft 23 kts 179°
2026-05-06 04:52 41.98412 -87.90044 658 ft 22 kts 180°
2026-05-06 04:52 41.98292 -87.90122 658 ft 23 kts 261°
2026-05-06 04:52 41.98288 -87.90365 659 ft 30 kts 270°
2026-05-06 04:53 41.98287 -87.90653 661 ft 32 kts 261°
2026-05-06 04:53 41.98132 -87.90786 664 ft 30 kts 179°
2026-05-06 04:53 41.97956 -87.90820 664 ft 19 kts 208°
2026-05-06 04:53 41.97918 -87.90910 664 ft 6 kts 275°
2026-05-06 04:54 41.97924 -87.90957 664 ft 0 kts 279°
2026-05-06 04:54 41.97924 -87.90958 664 ft 0 kts 281°